Regional Weather Roundup
Issued by NWS

Home | Current Version | Previous Version | Graphics & Text | Print | Product List | Glossary On
Versions: 1 2 3 4 5 6 7 8 9 10 11 12 13 14 15 16 17 18 19 20 21 22 23 24 25 26 27 28 29 30 31 32 33 34 35 36 37 38 39 40 41 42 43 44 45 46 47 48 49 50
000
ASUS43 KDMX 021307
RWRIA

WEATHER ROUNDUP FOR IOWA
NATIONAL WEATHER SERVICE DES MOINES IA
800 AM CDT SUN AUG 02 2015

NOTE: "FAIR" INDICATES FEW OR NO CLOUDS BELOW 12,000 FEET WITH NO
SIGNIFICANT WEATHER AND/OR OBSTRUCTIONS TO VISIBILITY.

* - THESE STATIONS ARE NOT NWS STATIONS...THUS NOT UNDER NWS
QUALITY CONTROL.  THEY ALSO DO NOT REPORT WEATHER SUCH
AS PRECIPITATION OR FOG.

IAZ001>003-012>014-020>022-031>034-043>046-021400-
   NORTHWEST IOWA

CITY           SKY/WX    TMP DP  RH WIND       PRES   REMARKS
CARROLL *      SUNNY     72  68  88 SW14      29.80F
CHEROKEE *     SUNNY     73  70  88 SW9       29.79F
DENISON *      SUNNY     73  70  88 SW7       29.81R
LE MARS *      SUNNY     70  68  94 S7        29.81R
ORANGE CITY *  SUNNY     70  66  88 SW8       29.80R
SHELDON *      SUNNY     72  68  88 SW10G16   29.78S
SIOUX CITY     SUNNY     72  66  81 E5        29.81R
SPENCER        SUNNY     73  67  81 SW13      29.78F
STORM LAKE *   SUNNY     72  68  88 SW12      29.81F
$$

IAZ055>058-069>071-079>083-090>094-021400-
   SOUTHWEST IOWA

CITY           SKY/WX    TMP DP  RH WIND       PRES   REMARKS
ATLANTIC *     SUNNY     73  72  94 S7        29.85S
AUDUBON *      SUNNY     73  68  83 S10       29.84F
CLARINDA *     SUNNY     73  70  88 CALM      29.89S
COUNCIL BLFS * SUNNY     73  70  88 S9        29.86S
CRESTON *      SUNNY     72  70  94 W7        29.89R
HARLAN  *      SUNNY     72  72 100 S12       29.87S
LAMONI         CLOUDY    72  65  78 S10       29.89F
RED OAK *      MOSUNNY   72  68  88 CALM      29.88S
SHENANDOAH *   MOSUNNY   73  70  88 CALM      29.88S
$$

IAZ047>049-059>061-072>074-084-021400-
   CENTRAL IOWA

CITY           SKY/WX    TMP DP  RH WIND       PRES   REMARKS
AMES           PTSUNNY   72  67  84 S6        29.80F
ANKENY *       SUNNY     75  66  73 MISG      29.82S
CHARITON *     MOSUNNY   73  64  73 SW15G21   29.86F
DES MOINES     CLOUDY    73  64  73 W7        29.83F
GRINNELL*      CLOUDY    72  64  78 SW12G20   29.84F
KNOXVILLE *    PTSUNNY   72  64  78 SW9       29.84F
MARSHALLTOWN   MOSUNNY   74  66  76 SW12      29.79F
PELLA *        CLOUDY    73  66  78 SW7       29.86F
PERRY *        PTSUNNY   75  68  78 W10       29.81S
$$

IAZ004>006-015-016-023>025-035-036-021400-
   NORTH CENTRAL IOWA

CITY           SKY/WX    TMP DP  RH WIND       PRES   REMARKS
ALGONA *       SUNNY     72  68  88 SW10      29.78S
CLARION *      SUNNY     70  66  88 SW10      29.79R
ESTHERVILLE    SUNNY     72  67  84 SW15G24   29.76F
FORT DODGE *   SUNNY     72  66  83 SW12      29.80S
MASON CITY     SUNNY     73  66  78 SW14      29.79R
FOREST CITY *  SUNNY     70  66  88 SW10      29.78S
IOWA FALLS *     N/A     72  66  83 SW13      29.80F
$$

IAZ007>011-017>019-026>030-037>042-050>054-066-021400-
   NORTHEAST IOWA

CITY           SKY/WX    TMP DP  RH WIND       PRES   REMARKS
CEDAR RAPIDS   MOSUNNY   70  67  90 S14       29.82F
CHARLES CITY * SUNNY     72  68  88 SW14      29.79R
CLINTON *      SUNNY     72  68  88 SW9       29.87F
DECORAH *      MOSUNNY   73  66  78 SW9G17    29.75F
DUBUQUE        MOSUNNY   72  66  81 SW10      29.82S
MONTICELLO *   SUNNY     72  68  88 SW9G15    29.82S
OELWEIN *      MOSUNNY   73  66  78 SW8G15    29.81S
WATERLOO       SUNNY     73  65  75 SW14      29.77F
$$

IAZ064-065-067-068-078-021400-
   EAST CENTRAL IOWA

CITY           SKY/WX    TMP DP  RH WIND       PRES   REMARKS
DAVENPORT      SUNNY     73  64  73 SW10      29.86F
IOWA CITY      MOSUNNY   72  63  73 SW8       29.86F
MT. PLEASANT * PTSUNNY   72  61  68 SW8       29.88F
MUSCATINE *    MOSUNNY   72  66  83 SE5       29.87S
QUAD CITIES    MOSUNNY   73  63  70 W6        29.86F
$$

IAZ062-063-075>077-085>089-095>099-021400-
   SOUTHEAST IOWA

CITY           SKY/WX    TMP DP  RH WIND       PRES   REMARKS
BURLINGTON     PTSUNNY   71  65  81 SW8       29.89S
FAIRFIELD *    MOSUNNY   72  63  73 S7        29.86F
FORT MADISON * SUNNY     72  64  78 S10       29.90F
KEOKUK *       SUNNY     73  64  73 SW9       29.89F
OSKALOOSA *      N/A     68  63  83 SW5       29.85F
CENTERVILLE *  SUNNY     68  64  88 S5        29.91R
OTTUMWA        CLOUDY    71  65  81 SW9       29.84F
WASHINGTON *   PTSUNNY   70  64  83 VRB6      29.87F
$$

ABBREVIATIONS USED IN REMARKS
   TC - TEMPERATURES IN CELSIUS
  WCI - WIND CHILL INDEX
   HX - HEAT INDEX
  VSB - VISIBILITY
$$



USA.gov is the U.S. government's official web portal to all federal, state and local government web resources and services.